DW3765 Weather Reports


Display with metric or nautical units.
time (UTC)temp
F
wind
direction
speed
MPH
gust
MPH
rain 1hr
in
rain 24hr
in
rain mn
in
humidity
%
barometer
mb
20260905234654 95 75 3.0 7.0 0.00 0.00 0.00 42 1011.4
20260905233634 95 88 5.0 8.0 0.00 0.00 0.00 42 1011.4
20260905233157 95 100 3.0 9.0 0.00 0.00 0.00 42 1011.4
20260905232634 95 78 3.0 9.0 0.00 0.00 0.00 42 1011.4
20260905232147 95 114 4.0 9.0 0.00 0.00 0.00 42 1011.4
20260905231709 95 84 3.0 7.0 0.00 0.00 0.00 42 1011.4
20260905231207 95 123 4.0 12.0 0.00 0.00 0.00 42 1011.3
20260905230657 94 169 7.0 12.0 0.00 0.00 0.00 42 1011.2
20260905230148 94 84 6.0 11.0 0.00 0.00 0.00 42 1011.3
20260905225641 94 101 6.0 11.0 0.00 0.00 0.00 42 1011.4
20260905225145 94 94 6.0 10.0 0.00 0.00 0.00 44 1011.5
20260905224638 94 122 5.0 8.0 0.00 0.00 0.00 45 1011.5
20260905224133 94 106 7.0 8.0 0.00 0.00 0.00 45 1011.7
20260905223655 94 98 1.0 5.0 0.00 0.00 0.00 46 1011.6
20260905223132 94 87 3.0 7.0 0.00 0.00 0.00 44 1011.5
20260905222646 94 111 5.0 10.0 0.00 0.00 0.00 42 1011.7
20260905221635 95 92 6.0 11.0 0.00 0.00 0.00 43 1011.7
20260905221154 96 56 7.0 14.0 0.00 0.00 0.00 43 1011.5
20260905220716 96 94 9.0 14.0 0.00 0.00 0.00 42 1011.7
20260905215634 97 90 1.0 7.0 0.00 0.00 0.00 42 1011.7
20260905215155 96 62 2.0 9.0 0.00 0.00 0.00 43 1011.7
20260905214648 96 125 4.0 12.0 0.00 0.00 0.00 43 1011.6
20260905214202 96 147 5.0 12.0 0.00 0.00 0.00 43 1011.7
20260905213624 96 102 2.0 9.0 0.00 0.00 0.00 46 1011.8
20260905213142 95 59 3.0 11.0 0.00 0.00 0.00 44 1011.9
20260905212706 95 159 6.0 11.0 0.00 0.00 0.00 44 1011.9
20260905212218 95 61 5.0 12.0 0.00 0.00 0.00 44 1011.9
20260905211630 96 168 7.0 12.0 0.00 0.00 0.00 43 1011.9
20260905211154 96 159 4.0 10.0 0.00 0.00 0.00 44 1011.9
20260905210138 95 44 0.0 12.0 0.00 0.00 0.00 46 1011.9
20260905205705 95 61 7.0 12.0 0.00 0.00 0.00 45 1012.0
20260905205218 95 80 7.0 11.0 0.00 0.00 0.00 45 1012.1
20260905204717 95 146 5.0 10.0 0.00 0.00 0.00 41 1012.2
20260905203635 95 122 6.0 10.0 0.00 0.00 0.00 42 1012.5
20260905203158 95 218 3.0 12.0 0.00 0.00 0.00 43 1012.5
20260905202709 95 201 5.0 12.0 0.00 0.00 0.00 44 1012.6
20260905202205 94 196 6.0 11.0 0.00 0.00 0.00 42 1012.6
20260905201134 94 182 5.0 11.0 0.00 0.00 0.00 44 1012.8
20260905200652 93 186 6.0 11.0 0.00 0.00 0.00 45 1013.0
20260905195637 93 127 7.0 11.0 0.00 0.00 0.00 48 1013.1
20260905195151 93 189 7.0 9.0 0.00 0.00 0.00 49 1013.1
20260905194716 93 157 4.0 11.0 0.00 0.00 0.00 48 1013.2
20260905194124 93 130 7.0 11.0 0.00 0.00 0.00 50 1013.4
20260905193639 93 141 5.0 13.0 0.00 0.00 0.00 51 1013.3
20260905193201 93 146 9.0 13.0 0.00 0.00 0.00 50 1013.6
20260905192655 93 194 6.0 13.0 0.00 0.00 0.00 53 1013.6
20260905191721 93 130 4.0 9.0 0.00 0.00 0.00 50 1013.9
20260905191206 93 92 2.0 9.0 0.00 0.00 0.00 53 1013.9
20260905190707 92 119 5.0 10.0 0.00 0.00 0.00 53 1014.0
20260905190203 92 113 6.0 10.0 0.00 0.00 0.00 54 1014.0
20260905185718 92 127 4.0 12.0 0.00 0.00 0.00 55 1014.2
20260905185127 92 226 6.0 15.0 0.00 0.00 0.00 55 1014.3
20260905184655 92 157 4.0 15.0 0.00 0.00 0.00 55 1014.4
20260905184153 92 120 5.0 12.0 0.00 0.00 0.00 52 1014.4
20260905183145 91 140 1.0 10.0 0.00 0.00 0.00 58 1014.6
20260905182656 91 76 8.0 10.0 0.00 0.00 0.00 55 1014.7
20260905182153 90 131 3.0 7.0 0.00 0.00 0.00 54 1014.7
20260905181217 89 76 1.0 6.0 0.00 0.00 0.00 62 1014.9
20260905180637 88 76 4.0 10.0 0.00 0.00 0.00 61 1015.1
20260905180235 89 84 6.0 11.0 0.00 0.00 0.00 61 1015.1
20260905175722 90 137 8.0 11.0 0.00 0.00 0.00 59 1015.1
20260905175221 90 150 3.0 10.0 0.00 0.00 0.00 57 1015.2
20260905174630 90 114 4.0 12.0 0.00 0.00 0.00 59 1015.3
20260905174145 90 121 6.0 11.0 0.00 0.00 0.00 59 1015.3
20260905173710 90 126 5.0 16.0 0.00 0.00 0.00 58 1015.3
20260905173221 90 176 10.0 16.0 0.00 0.00 0.00 58 1015.4
20260905172644 89 136 6.0 14.0 0.00 0.00 0.00 59 1015.3
20260905172138 89 134 7.0 14.0 0.00 0.00 0.00 59 1015.3
20260905171656 89 105 6.0 13.0 0.00 0.00 0.00 61 1015.3
20260905171219 89 111 7.0 13.0 0.00 0.00 0.00 62 1015.4
20260905170625 88 168 6.0 12.0 0.00 0.00 0.00 65 1015.5
20260905170150 87 142 6.0 11.0 0.00 0.00 0.00 65 1015.6
20260905165708 87 145 6.0 11.0 0.00 0.00 0.00 65 1015.6
20260905165204 86 188 4.0 11.0 0.00 0.00 0.00 66 1015.7
20260905164655 86 169 6.0 10.0 0.00 0.00 0.00 67 1015.8
20260905164219 86 182 4.0 8.0 0.00 0.00 0.00 69 1015.8
20260905163714 85 198 4.0 13.0 0.00 0.00 0.00 69 1015.9
20260905163134 85 111 6.0 13.0 0.00 0.00 0.00 69 1016.0
20260905162631 85 140 6.0 11.0 0.00 0.00 0.00 71 1015.9
20260905162147 85 153 5.0 9.0 0.00 0.00 0.00 72 1015.9
20260905161649 85 184 2.0 10.0 0.00 0.00 0.00 74 1016.1
20260905161203 84 190 5.0 10.0 0.00 0.00 0.00 74 1016.2
20260905160705 85 172 6.0 10.0 0.00 0.00 0.00 73 1016.1
20260905160202 85 188 6.0 10.0 0.00 0.00 0.00 73 1016.1
20260905155652 84 120 4.0 9.0 0.00 0.00 0.00 75 1015.9
20260905154651 84 217 2.0 10.0 0.00 0.00 0.00 77 1016.0
20260905154205 84 176 5.0 11.0 0.00 0.00 0.00 77 1016.0
20260905153122 83 167 4.0 10.0 0.00 0.00 0.00 77 1015.9
20260905152727 84 167 6.0 13.0 0.00 0.00 0.00 75 1015.9
20260905152157 85 196 7.0 13.0 0.00 0.00 0.00 75 1015.8
20260905151654 85 218 5.0 8.0 0.00 0.00 0.00 76 1015.7
20260905151148 85 184 5.0 8.0 0.00 0.00 0.00 76 1015.8
20260905150142 84 93 6.0 11.0 0.00 0.00 0.00 79 1015.7
20260905145655 83 148 3.0 11.0 0.00 0.00 0.00 80 1015.7
20260905145149 83 140 7.0 10.0 0.00 0.00 0.00 81 1015.7
20260905144647 82 161 6.0 9.0 0.00 0.00 0.00 82 1015.7
20260905144208 82 194 5.0 9.0 0.00 0.00 0.00 83 1015.6
20260905143704 82 173 6.0 13.0 0.00 0.00 0.00 84 1015.7
20260905143157 81 134 7.0 12.0 0.00 0.00 0.00 85 1015.7
20260905142716 81 165 5.0 9.0 0.00 0.00 0.00 86 1015.8
20260905142147 81 144 3.0 8.0 0.00 0.00 0.00 88 1015.6
20260905141623 80 111 3.0 7.0 0.00 0.00 0.00 88 1015.6
20260905141141 80 138 4.0 10.0 0.00 0.00 0.00 89 1015.6
20260905140653 80 143 4.0 10.0 0.00 0.00 0.00 90 1015.5
20260905140158 80 177 4.0 8.0 0.00 0.00 0.00 91 1015.4
20260905135139 79 146 4.0 6.0 0.00 0.00 0.00 93 1015.3
20260905134703 79 171 1.0 6.0 0.00 0.00 0.00 94 1015.3
20260905134211 79 163 2.0 6.0 0.00 0.00 0.00 95 1015.3
20260905133726 78 163 1.0 6.0 0.00 0.00 0.00 95 1015.2
20260905133226 78 115 2.0 5.0 0.00 0.00 0.00 95 1015.2
20260905132659 77 158 1.0 4.0 0.00 0.00 0.00 95 1015.1
20260905132154 77 146 0.0 0.0 0.00 0.00 0.00 95 1015.1
20260905131659 76 142 0.0 0.0 0.00 0.00 0.00 95 1015.1
20260905131210 76 110 0.0 0.0 0.00 0.00 0.00 95 1015.2
20260905130716 76 111 0.0 0.0 0.00 0.00 0.00 95 1015.0
20260905130209 75 111 0.0 0.0 0.00 0.00 0.00 94 1014.9
20260905125701 75 110 0.0 0.0 0.00 0.00 0.00 94 1014.9
20260905125158 75 110 0.0 0.0 0.00 0.00 0.00 94 1014.8
20260905124722 75 111 0.0 0.0 0.00 0.00 0.00 94 1014.7
20260905124133 76 111 0.0 0.0 0.00 0.00 0.00 94 1014.7
20260905123651 76 110 0.0 0.0 0.00 0.00 0.00 94 1014.6
20260905123150 76 110 0.0 0.0 0.00 0.00 0.00 94 1014.6
20260905122219 76 114 0.0 2.0 0.00 0.00 0.00 94 1014.6
20260905121717 76 115 1.0 2.0 0.00 0.00 0.00 94 1014.5
20260905121213 75 104 0.0 0.0 0.00 0.00 0.00 94 1014.5
20260905120712 75 128 0.0 0.0 0.00 0.00 0.00 93 1014.4
20260905120208 75 128 0.0 0.0 0.00 0.00 0.00 93 1014.5
20260905115705 75 128 0.0 0.0 0.00 0.00 0.00 93 1014.5
20260905115204 75 128 0.0 0.0 0.00 0.00 0.00 93 1014.6
20260905114657 76 128 0.0 0.0 0.00 0.00 0.00 93 1014.6
20260905114206 76 128 0.0 0.0 0.00 0.00 0.00 93 1014.5
20260905113626 76 128 0.0 0.0 0.00 0.00 0.00 93 1014.5
20260905113224 76 128 0.0 0.0 0.00 0.00 0.00 93 1014.6
20260905112720 76 128 0.0 0.0 0.00 0.00 0.00 93 1014.4
20260905112222 76 128 0.0 0.0 0.00 0.00 0.00 92 1014.4
20260905111715 76 128 0.0 0.0 0.00 0.00 0.00 92 1014.5
20260905111207 76 128 0.0 0.0 0.00 0.00 0.00 92 1014.5
20260905110721 76 128 0.0 0.0 0.00 0.00 0.00 92 1014.4
20260905110142 76 128 0.0 0.0 0.00 0.00 0.00 92 1014.5
20260905105636 76 128 0.0 0.0 0.00 0.00 0.00 93 1014.5
20260905105134 76 128 0.0 0.0 0.00 0.00 0.00 93 1014.4
20260905104659 76 128 0.0 0.0 0.00 0.00 0.00 92 1014.3
20260905104209 77 128 0.0 0.0 0.00 0.00 0.00 92 1014.4
20260905103719 77 128 0.0 0.0 0.00 0.00 0.00 92 1014.3
20260905103127 77 128 0.0 0.0 0.00 0.00 0.00 92 1014.2
20260905102641 77 128 0.0 0.0 0.00 0.00 0.00 91 1014.3
20260905102203 77 128 0.0 0.0 0.00 0.00 0.00 91 1014.3
20260905101719 77 128 0.0 0.0 0.00 0.00 0.00 91 1014.3
20260905101239 77 128 0.0 0.0 0.00 0.00 0.00 91 1014.3
20260905100629 77 128 0.0 2.0 0.00 0.00 0.00 91 1014.2
20260905100144 77 128 1.0 2.0 0.00 0.00 0.00 91 1014.2
20260905095134 78 128 0.0 2.0 0.00 0.00 0.00 91 1014.2
20260905094650 78 128 0.0 5.0 0.00 0.00 0.00 91 1014.2
20260905094214 78 128 1.0 5.0 0.00 0.00 0.00 91 1014.2
20260905093238 78 132 1.0 4.0 0.00 0.00 0.00 91 1014.1
20260905092635 78 132 0.0 4.0 0.00 0.00 0.00 91 1014.2
20260905092152 78 132 1.0 3.0 0.00 0.00 0.00 90 1014.2
20260905091705 78 132 1.0 5.0 0.00 0.00 0.00 90 1014.1
20260905091210 78 132 3.0 5.0 0.00 0.00 0.00 90 1014.1
20260905090724 78 133 2.0 3.0 0.00 0.00 0.00 90 1014.3
20260905090219 78 134 1.0 2.0 0.00 0.00 0.00 90 1014.3
20260905085642 78 133 1.0 2.0 0.00 0.00 0.00 89 1014.2
20260905085158 78 133 0.0 5.0 0.00 0.00 0.00 89 1014.2
20260905084655 79 133 1.0 5.0 0.00 0.00 0.00 89 1014.3
20260905084216 79 121 1.0 5.0 0.00 0.00 0.00 89 1014.1
20260905083216 79 130 2.0 5.0 0.00 0.00 0.00 89 1014.2
20260905082627 79 130 3.0 8.0 0.00 0.00 0.00 89 1014.4
20260905082154 79 146 3.0 5.0 0.00 0.00 0.00 88 1014.5
20260905081711 79 150 2.0 5.0 0.00 0.00 0.00 88 1014.5
20260905081207 79 150 3.0 8.0 0.00 0.00 0.00 88 1014.4
20260905080731 79 143 3.0 8.0 0.00 0.00 0.00 88 1014.4
20260905080205 79 167 5.0 8.0 0.00 0.00 0.00 87 1014.5
20260905075700 79 158 4.0 9.0 0.00 0.00 0.00 87 1014.5
20260905075154 79 168 3.0 7.0 0.00 0.00 0.00 87 1014.5
20260905074651 79 132 3.0 9.0 0.00 0.00 0.00 86 1014.5
20260905073732 79 127 4.0 8.0 0.00 0.00 0.00 86 1014.6
20260905073203 79 141 4.0 8.0 0.00 0.00 0.00 86 1014.7
20260905072700 79 137 3.0 7.0 0.00 0.00 0.00 85 1014.7
20260905072157 79 119 5.0 9.0 0.00 0.00 0.00 85 1014.8
20260905071646 79 103 5.0 9.0 0.00 0.00 0.00 85 1014.8
20260905071143 80 165 4.0 9.0 0.00 0.00 0.00 84 1014.7
20260905070713 80 148 3.0 9.0 0.00 0.00 0.00 84 1014.8
20260905070135 79 196 4.0 9.0 0.00 0.00 0.00 84 1014.9
20260905065624 80 148 2.0 10.0 0.00 0.00 0.00 84 1014.8
20260905065146 79 131 6.0 10.0 0.00 0.00 0.00 84 1014.8
20260905064625 79 134 6.0 10.0 0.00 0.00 0.00 83 1014.8
20260905064128 80 131 4.0 7.0 0.00 0.00 0.00 83 1014.8
20260905063636 80 117 4.0 7.0 0.00 0.00 0.00 82 1014.9
20260905063142 80 159 3.0 5.0 0.00 0.00 0.00 82 1014.9
20260905062641 80 165 3.0 5.0 0.00 0.00 0.00 82 1015.0
20260905062129 80 153 3.0 7.0 0.00 0.00 0.00 82 1015.0
20260905061636 80 132 5.0 7.0 0.00 0.00 0.00 81 1015.0
20260905061133 80 142 4.0 6.0 0.00 0.00 0.00 81 1014.9
20260905060642 80 167 2.0 7.0 0.00 0.00 0.00 80 1015.0
20260905060128 80 166 3.0 7.0 0.00 0.00 0.00 80 1015.0
20260905055656 80 149 4.0 7.0 0.00 0.00 0.00 79 1014.9
20260905055140 80 149 4.0 7.0 0.00 0.00 0.00 79 1014.9
20260905054650 80 156 4.0 8.0 0.00 0.00 0.00 78 1014.9
20260905054123 81 121 5.0 9.0 0.00 0.00 0.00 78 1014.8
20260905053627 81 126 6.0 9.0 0.00 0.00 0.00 77 1014.8
20260905053124 81 136 5.0 11.0 0.00 0.00 0.00 76 1014.9
20260905052631 81 153 6.0 11.0 0.00 0.00 0.00 76 1015.0
20260905052138 81 133 6.0 8.0 0.00 0.00 0.00 75 1015.0
20260905051647 81 140 4.0 9.0 0.00 0.00 0.00 75 1014.9
20260905051133 81 147 3.0 9.0 0.00 0.00 0.00 75 1014.8
20260905050643 81 117 5.0 10.0 0.00 0.00 0.00 74 1014.8
20260905050141 81 127 7.0 10.0 0.00 0.00 0.00 74 1014.8
20260905045650 81 107 3.0 8.0 0.00 0.00 0.00 74 1014.9
20260905045134 81 123 4.0 8.0 0.00 0.00 0.00 74 1014.9
20260905044648 81 116 4.0 10.0 0.00 0.00 0.00 74 1015.0
20260905043636 81 111 4.0 6.0 0.00 0.00 0.00 73 1015.0
20260905043151 82 115 4.0 8.0 0.00 0.00 0.00 73 1015.0
20260905042652 82 113 2.0 9.0 0.00 0.00 0.00 73 1015.0
20260905042156 82 146 5.0 9.0 0.00 0.00 0.00 72 1015.1
20260905041220 82 123 4.0 8.0 0.00 0.00 0.00 72 1014.9
20260905040713 82 120 3.0 7.0 0.00 0.00 0.00 71 1014.8
20260905040209 82 76 4.0 8.0 0.00 0.00 0.00 71 1014.9
20260905035704 82 109 5.0 8.0 0.00 0.00 0.00 71 1014.8
20260905035125 82 116 4.0 8.0 0.00 0.00 0.00 70 1014.8
20260905034641 83 117 3.0 8.0 0.00 0.00 0.00 70 1014.8
20260905033719 83 131 6.0 8.0 0.00 0.00 0.00 69 1014.7
20260905033152 83 153 4.0 7.0 0.00 0.00 0.00 69 1014.6
20260905032647 83 124 3.0 7.0 0.00 0.00 0.00 69 1014.7
20260905032127 83 106 4.0 7.0 0.00 0.00 0.00 69 1014.5
20260905031626 83 121 4.0 7.0 0.00 0.00 0.00 68 1014.4
20260905031148 83 91 3.0 9.0 0.00 0.00 0.00 68 1014.5
20260905030741 83 126 5.0 10.0 0.00 0.00 0.00 68 1014.4
20260905030130 83 113 7.0 10.0 0.00 0.00 0.00 68 1014.4
20260905025655 83 64 3.0 8.0 0.00 0.00 0.00 68 1014.4
20260905024631 83 92 3.0 7.0 0.00 0.00 0.00 68 1014.3
20260905024156 83 107 3.0 7.0 0.00 0.00 0.00 67 1014.2
20260905023653 84 105 3.0 7.0 0.00 0.00 0.00 67 1014.0
20260905022643 84 65 4.0 9.0 0.00 0.00 0.00 66 1013.9
20260905022156 84 68 5.0 9.0 0.00 0.00 0.00 66 1013.9
20260905021701 84 71 5.0 8.0 0.00 0.00 0.00 66 1013.8
20260905021212 84 76 4.0 8.0 0.00 0.00 0.00 65 1013.7
20260905020625 84 76 5.0 8.0 0.00 0.00 0.00 65 1013.7
20260905020146 84 79 5.0 8.0 0.00 0.00 0.00 65 1013.8
20260905015655 85 71 3.0 11.0 0.00 0.00 0.00 65 1013.7
20260905015158 85 71 6.0 11.0 0.00 0.00 0.00 64 1013.7
20260905014716 85 88 6.0 10.0 0.00 0.00 0.00 64 1013.7
20260905014203 85 92 6.0 11.0 0.00 0.00 0.00 64 1013.7
20260905013727 85 57 7.0 11.0 0.00 0.00 0.00 63 1013.6
20260905013211 85 59 6.0 10.0 0.00 0.00 0.00 63 1013.6
20260905012128 86 76 5.0 10.0 0.00 0.00 0.00 62 1013.5
20260905011640 86 61 5.0 10.0 0.00 0.00 0.00 61 1013.4
20260905011157 86 55 6.0 14.0 0.00 0.00 0.00 61 1013.3
20260905010152 87 88 3.0 6.0 0.00 0.00 0.00 58 1013.1
20260905005221 87 101 2.0 6.0 0.00 0.00 0.00 58 1013.2
20260905004637 88 109 2.0 6.0 0.00 0.00 0.00 58 1013.2
20260905004241 88 110 4.0 9.0 0.00 0.00 0.00 58 1013.2
20260905003718 88 98 3.0 9.0 0.00 0.00 0.00 57 1013.1
20260905003128 89 126 2.0 5.0 0.00 0.00 0.00 57 1013.1
20260905002652 89 127 3.0 6.0 0.00 0.00 0.00 56 1013.1
20260905001634 89 117 6.0 9.0 0.00 0.00 0.00 55 1012.9
20260905001220 89 116 3.0 8.0 0.00 0.00 0.00 55 1012.8
20260905000714 90 124 6.0 11.0 0.00 0.00 0.00 54 1012.7
20260904235641 90 90 5.0 9.0 0.00 0.00 0.00 54 1012.6
20260904235158 91 109 3.0 10.0 0.00 0.00 0.00 55 1012.6